Printer-friendly version

IAU Minor Planet Center

Minor Planet Center

MPEC 2004-S22 : 2003 UZ117

The following Minor Planet Electronic Circular may be linked-to from your own Web pages, but must not otherwise be redistributed electronically.


Read MPEC 2004-S21 Read MPEC 2004-S23


M.P.E.C. 2004-S22                                Issued 2004 Sept. 19, 01:15 UT

     The Minor Planet Electronic Circulars contain information on unusual
         minor planets and routine data on comets.  They are published
   on behalf of Commission 20 of the International Astronomical Union by the
          Minor Planet Center, Smithsonian Astrophysical Observatory,
                          Cambridge, MA 02138, U.S.A.

                  Supported in part by the Brinson Foundation
             Prepared using the Tamkin Foundation Computer Network

                              MPC@CFA.HARVARD.EDU
          URL http://cfa-www.harvard.edu/iau/mpc.html  ISSN 1523-6714

                                  2003 UZ117

                           Revision to MPEC 2003-V03

Additional Observations:
     K03UB7Z  C2002 11 13.26193 02 45 28.86 +06 53 03.0          20.8 R ES022644
     K03UB7Z  C2002 11 13.34675 02 45 28.40 +06 53 01.1          20.3 R ES022644
     K03UB7Z  C2002 11 13.41278 02 45 28.02 +06 53 00.3          20.7 R ES022644
     K03UB7Z  C2004 09 18.03369 03 01 35.78 +06 53 30.0          20.6 R ES022540
     K03UB7Z  C2004 09 18.07361 03 01 35.61 +06 53 28.2          20.7 R ES022540
     K03UB7Z  C2004 09 18.12691 03 01 35.53 +06 53 27.1          20.7 R ES022540
     K03UB7Z  C2004 09 18.98371 03 01 33.19 +06 52 59.8                 ES022246
     K03UB7Z  C2004 09 18.99727 03 01 33.18 +06 53 00.1                 ES022246
     K03UB7Z  C2004 09 19.00615 03 01 33.14 +06 53 00.9                 ES022246
     K03UB7Z  C2004 09 19.01761 03 01 33.06 +06 53 00.9                 ES022246
     K03UB7Z  C2004 09 19.02229 03 01 33.08 +06 52 59.5                 ES022246
     K03UB7Z  C2004 09 19.02332 03 01 33.05 +06 52 59.3                 ES022246

Observer details:
246 Klet Observatory-KLENOT.  Observers J. Ticha, M. Tichy, M. Kocer.
    Measurer M. Tichy.  1.06-m KLENOT Telescope + CCD.
540 Linz.  Observer E. Meyer.  0.6-m f/3.3 reflector + CCD.
644 Palomar Mountain/NEAT.  Measurer R. Stoss.  1.2-m Oschin Schmidt + CCD.

First and last observations above in comparison with prediction:
Residuals in seconds of arc and reference
021113 644 70.9+ 14.4+    040919 246 38.5- 15.2-    MPO 58007

Orbital elements:
2003 UZ117
Epoch 2004 July 14.0 TT = JDT 2453200.5                 MPC
M 324.54190              (2000.0)            P               Q
n   0.00335728     Peri.  246.63424     +0.02039562     -0.98108321
a  44.1716989      Node   204.67160     +0.99939542     +0.01458328
e   0.1316710      Incl.   27.46404     -0.02815703     -0.19303645
P 294              H    5.2           G   0.15           U   5
Residuals in seconds of arc
021113 644  0.7+  0.6-    031102 291  0.7-  1.1+    040918 246  0.1-  1.0-
021113 644  0.1+  0.2-    031122 695  0.0   0.2-    040918 246  0.3+  0.3-
021113 644  0.8-  0.8+    031122 290  0.1+  0.0     040919 246  0.0   0.8+
031024 691  0.1+  0.4-    031122 695  0.0   0.1-    040919 246  0.7-  1.1+
031024 691  0.0   0.2-    031122 290  0.1+  0.0     040919 246  0.2-  0.1-
031024 691  0.3+  0.0     040918 540  0.8+  0.2+    040919 246  0.6-  0.3-
031102 291  0.2+  1.0-    040918 540  0.2-  0.4-
031102 291  0.1+  0.9+    040918 540  0.8+  0.1+

Ephemeris:
2003 UZ117               a,e,i = 44.17, 0.13, 27                 q = 38.356
Date    TT    R. A. (2000) Decl.     Delta      r     Elong.  Phase     V
2004 09 12    03 01.83   +06 56.5   39.154   39.724   123.9     1.2    21.3
2004 09 22    03 01.41   +06 51.5   39.024   39.722   133.5     1.0    21.3
2004 10 02    03 00.86   +06 46.2   38.914   39.719   143.1     0.9    21.3
2004 10 12    03 00.20   +06 40.8   38.828   39.717   152.6     0.7    21.3
2004 10 22    02 59.46   +06 35.4   38.769   39.714   161.6     0.5    21.2
2004 11 01    02 58.67   +06 30.2   38.738   39.712   168.7     0.3    21.2
2004 11 11    02 57.85   +06 25.4   38.738   39.709   168.8     0.3    21.2
2004 11 21    02 57.03   +06 21.1   38.767   39.707   161.8     0.4    21.2
2004 12 01    02 56.26   +06 17.5   38.826   39.705   152.7     0.7    21.3
2004 12 11    02 55.55   +06 14.6   38.912   39.702   142.9     0.9    21.3
2004 12 21    02 54.94   +06 12.5   39.023   39.700   132.9     1.0    21.3
2004 12 31    02 54.45   +06 11.3   39.155   39.697   122.9     1.2    21.3
2005 01 10    02 54.11   +06 11.1   39.303   39.695   112.8     1.3    21.3
2005 01 20    02 53.91   +06 11.7   39.464   39.693   102.7     1.4    21.4
2005 01 30    02 53.89   +06 13.1   39.631   39.690    92.7     1.4    21.4
2005 02 09    02 54.03   +06 15.4   39.799   39.688    82.8     1.4    21.4
2005 02 19    02 54.34   +06 18.3   39.964   39.685    72.9     1.4    21.4
2005 03 01    02 54.80   +06 21.8   40.120   39.683    63.2     1.3    21.4
2005 03 11    02 55.42   +06 25.7   40.263   39.681    53.5     1.2    21.4
2005 03 21    02 56.16   +06 30.0   40.388   39.678    44.0     1.0    21.4
2005 03 31    02 57.02   +06 34.4   40.493   39.676    34.7     0.8    21.4

Brian G. Marsden             (C) Copyright 2004 MPC           M.P.E.C. 2004-S22

Read MPEC 2004-S21 Read MPEC 2004-S23


Our Web policy. Index to the CBAT/MPC/ICQ pages.


Valid HTML 4.01!